Regional Weather Roundup
Issued by NWS

Home | Current Version | Previous Version | Graphics & Text | Print | Product List | Glossary On
Versions: 1 2 3 4 5 6 7 8 9 10 11 12 13 14 15 16 17 18 19 20 21 22 23 24 25 26 27 28 29 30 31 32 33 34 35 36 37 38 39 40 41 42 43 44 45 46 47 48 49 50
000
ASUS45 KPSR 280500
RWRAZ

PRELIMINARY ARIZONA REGIONAL HOURLY WEATHER ROUNDUP
NATIONAL WEATHER SERVICE PHOENIX AZ
1000 PM MST TUE JAN 27 2015

NOTE: FAIR INDICATES FEW OR NO CLOUDS BELOW 12,000 FEET WITH NO
SIGNIFICANT WEATHER AND/OR OBSTRUCTIONS TO VISIBILITY.

AZZ001>003-036-280600-
NORTHWEST ARIZONA

CITY           SKY/WX    TMP DP  RH WIND       PRES   REMARKS
KINGMAN        CLEAR     47  44  90 S6        30.24R
$$

AZZ004>008-015-016-018-280600-
NORTH CENTRAL ARIZONA

CITY           SKY/WX    TMP DP  RH WIND       PRES   REMARKS
GRAND CANYON   PTCLDY    29  28  96 CALM      30.31S
PRESCOTT       MOCLDY    42  37  82 SW7       30.28R
FLAGSTAFF      NOT AVBL
PAYSON         CLEAR     46  41  81 CALM      30.29S
$$

AZZ009>014-017-280600-
NORTHEAST ARIZONA

CITY           SKY/WX    TMP DP  RH WIND       PRES   REMARKS
WINSLOW        NOT AVBL
SAINT JOHNS    CLEAR     40  35  83 S6        30.27F
WINDOW ROCK    CLEAR     41  34  76 CALM      30.31S
SHOW LOW       CLEAR     34  32  93 CALM      30.32S
$$

AZZ023-280600-
GREATER PHOENIX AREA

CITY           SKY/WX    TMP DP  RH WIND       PRES   REMARKS
PHOENIX        PTCLDY    63  50  62 CALM      30.14R
LUKE AFB       NOT AVBL
DEER VALLEY    PTCLDY    61  50  67 CALM      30.15R
SCOTTSDALE     PTCLDY    62  50  64 CALM      30.16S
MESA-GATEWAY   PTCLDY    57  52  82 CALM      30.17S
$$

AZZ027-028-280600-
SOUTHWEST MARICOPA COUNTY AND PINAL COUNTY

CITY           SKY/WX    TMP DP  RH WIND       PRES   REMARKS
CASA GRANDE    PTCLDY    54  50  87 CALM      30.16F
GILA BEND      CLEAR     59  55  87 SW5       30.15R
$$

AZZ503-504-507>509-280600-
SOUTHEAST ARIZONA

CITY           SKY/WX    TMP DP  RH WIND       PRES   REMARKS
TUCSON         CLEAR     58  50  75 W6        30.21R
DAVIS-MONTHAN  PTCLDY    55  49  81 S5        30.19R
NOGALES        CLEAR     51  43  74 E6        30.22R
SIERRA VISTA   MOCLDY    52  46  82 W9        30.24R
SAFFORD        PTCLDY    52  35  52 N6        30.17S
$$

AZZ020-021-025-026-031-280600-
SOUTHWEST ARIZONA

CITY           SKY/WX    TMP DP  RH WIND       PRES   REMARKS
YUMA           MOCLDY    59  54  83 W6        30.17R
$$

CAZ031-033-041-043-047-048-061-280600-
SOUTHERN CALIFORNIA

CITY           SKY/WX    TMP DP  RH WIND       PRES   REMARKS
DOWNTOWN L.A.  CLEAR     59  54  83 CALM      30.16F
L.A. AIRPORT   CLEAR     59  55  87 CALM      30.17S
SAN DIEGO      PTCLDY    62  52  69 CALM      30.18F
BURBANK        CLEAR     58  47  66 W5        30.16F
ONTARIO        PTCLDY    59  49  69 VRB3      30.17F
RIVERSIDE      CLEAR     58  49  72 CALM      30.18S
PALM SPRINGS   CLEAR     61  53  75 N6        30.22R
EL CENTRO NAS  CLEAR     56  52  86 W3        30.18R
IMPERIAL       CLEAR     54  52  93 W3        30.18R
BLYTHE         CLEAR     58  55  90 W7        30.18R
$$

NVZ020-UTZ003-280600-
SOUTHERN NEVADA-UTAH

CITY           SKY/WX    TMP DP  RH WIND       PRES   REMARKS
LAS VEGAS      NOT AVBL
SALT LAKE CITY CLOUDY    44  37  76 N15       30.17R
$$

NMZ009-TXZ055-280600-
NEW MEXICO-WEST TEXAS

CITY           SKY/WX    TMP DP  RH WIND       PRES   REMARKS
ALBUQUERQUE    CLEAR     43  28  55 SE5       30.25S
EL PASO        PTCLDY    53  40  61 S3        30.20F
$$


........................KEY........................
SKY/WX - SKY CONDITION/WEATHER
TMP    - TEMPERATURE IN FAHRENHEIT
DP     - DEW POINT IN FAHRENHEIT
RH     - RELATIVE HUMIDITY IN PERCENT
WIND   - DIRECTION AND SPEED IN MILES PER HOUR (MPH)
VRB    - VARIABLE WIND DIRECTION
PRES   - MEAN SEA LEVEL PRESSURE IN INCHES OF MERCURY
         F - FALLING PRESSURE   R - RISING PRESSURE
         S - STEADY PRESSURE
VSB    - VISIBILITY IN MILES
HX     - HEAT INDEX IN FAHRENHEIT
WCI    - WIND CHILL INDEX IN FAHRENHEIT
TC     - TEMPERATURE IN CELSIUS WHICH IS ALSO KNOWN AS
         TEMPERATURE IN CENTIGRADE
AFB    - AIR FORCE BASE
         LUKE AFB IS LUKE AIR FORCE BASE
         DAVIS-MONTHAN IS DAVIS-MONTHAN AIR FORCE BASE
NAS    - NAVAL AIR STATION
         EL CENTRO NAS IS EL CENTRO NAVAL AIR STATION
N/A    - NOT AVAILABLE


USA.gov is the U.S. government's official web portal to all federal, state and local government web resources and services.